Terug naar catalogus

STARLINK-35080

ActiefCommunicatieSSO
NORAD 65437·PAYLOAD·🇺🇸 United States

Gelanceerd Sep 3, 2025 vanaf Vandenberg Space Force Base

Loading…

Volgende Passages (komende 24 uur)

TLE

VersSource: CelesTrak SupGP

Epoch: Sep 15, 2026, 03:17 UTC

1 65437C 25194D   26258.13729167 -.00031328  00000+0 -97320-3 0  2585
2 65437  97.2849 107.8116 0001617  92.9165 243.1793 15.33431940    10

Volg STARLINK-35080 in realtime met AllMySat

Download on the App Store